Time,TemperatureF,DewpointF,PressureIn,WindDirection,WindDirectionDegrees,WindSpeedMPH,WindSpeedGustMPH,Humidity,HourlyPrecipIn,Conditions,Clouds,dailyrainin,SoftwareType,DateUTC
2013-03-27 00:04:00,46.0,38.3,29.98,West,279,0.0,0.0,74,0.01,,,0.01,meteohub,2013-03-27 07:04:00,
2013-03-27 00:09:00,46.0,38.3,29.98,West,279,0.0,0.0,74,0.01,,,0.01,meteohub,2013-03-27 07:09:00,
2013-03-27 00:14:00,46.0,38.3,29.98,West,279,0.0,0.0,74,0.01,,,0.00,meteohub,2013-03-27 07:14:00,
2013-03-27 00:19:00,45.9,38.1,29.98,West,279,0.0,0.0,74,0.01,,,0.00,meteohub,2013-03-27 07:19:00,
2013-03-27 00:24:00,45.9,37.8,29.98,West,279,0.0,0.0,73,0.01,,,0.00,meteohub,2013-03-27 07:24:00,
2013-03-27 00:29:00,45.9,38.1,29.98,West,279,0.0,0.0,74,0.01,,,0.00,meteohub,2013-03-27 07:29:00,
2013-03-27 00:34:00,45.9,37.8,29.98,West,279,0.0,0.0,73,0.01,,,0.00,meteohub,2013-03-27 07:34:00,
2013-03-27 00:39:00,45.7,37.6,29.98,West,279,0.0,0.0,73,0.01,,,0.00,meteohub,2013-03-27 07:39:00,
2013-03-27 00:44:00,45.7,37.6,29.98,West,279,0.0,0.0,73,0.01,,,0.00,meteohub,2013-03-27 07:44:00,
2013-03-27 00:49:00,45.7,37.6,29.98,West,279,0.0,0.0,73,0.00,,,0.00,meteohub,2013-03-27 07:49:00,
2013-03-27 00:54:00,45.7,37.6,29.98,West,279,0.0,0.0,73,0.00,,,0.00,meteohub,2013-03-27 07:54:00,
2013-03-27 00:59:00,45.7,37.6,29.98,West,279,0.0,0.0,73,0.00,,,0.00,meteohub,2013-03-27 07:59:00,
2013-03-27 01:04:00,45.5,37.4,29.98,West,279,0.0,0.0,73,0.00,,,0.00,meteohub,2013-03-27 08:04:00,
2013-03-27 01:09:00,45.5,37.4,29.98,West,279,0.0,0.0,73,0.00,,,0.00,meteohub,2013-03-27 08:09:00,
2013-03-27 01:14:00,45.5,37.0,29.98,West,279,0.0,0.0,72,0.00,,,0.00,meteohub,2013-03-27 08:14:00,
2013-03-27 01:19:00,45.3,36.9,29.98,West,279,0.0,0.0,72,0.00,,,0.00,meteohub,2013-03-27 08:19:00,
2013-03-27 01:24:00,45.3,36.9,29.98,West,279,0.0,0.0,72,0.00,,,0.00,meteohub,2013-03-27 08:24:00,
2013-03-27 01:29:00,45.3,36.9,29.98,West,279,0.0,0.0,72,0.00,,,0.00,meteohub,2013-03-27 08:29:00,
2013-03-27 01:34:00,45.3,36.9,29.98,West,279,0.0,0.0,72,0.00,,,0.00,meteohub,2013-03-27 08:34:00,
2013-03-27 01:39:00,45.3,36.9,29.98,West,279,0.0,0.0,72,0.00,,,0.00,meteohub,2013-03-27 08:39:00,
2013-03-27 01:44:00,45.3,36.9,29.98,West,279,0.0,0.0,72,0.00,,,0.00,meteohub,2013-03-27 08:44:00,
2013-03-27 01:49:00,45.1,36.7,29.98,West,279,0.0,0.0,72,0.00,,,0.00,meteohub,2013-03-27 08:49:00,
2013-03-27 01:54:00,45.1,36.7,29.98,West,279,0.0,0.0,72,0.00,,,0.00,meteohub,2013-03-27 08:54:00,
2013-03-27 01:59:00,45.1,36.7,29.97,West,279,0.0,0.0,72,0.00,,,0.00,meteohub,2013-03-27 08:59:00,
2013-03-27 02:04:00,45.1,36.7,29.97,West,279,0.0,0.0,72,0.00,,,0.00,meteohub,2013-03-27 09:04:00,
2013-03-27 02:09:00,45.1,36.7,29.97,West,279,0.0,0.0,72,0.00,,,0.00,meteohub,2013-03-27 09:09:00,
2013-03-27 02:14:00,45.1,36.7,29.97,West,279,0.0,0.0,72,0.00,,,0.00,meteohub,2013-03-27 09:14:00,
2013-03-27 02:19:00,45.0,36.5,29.97,West,279,0.0,0.0,72,0.00,,,0.00,meteohub,2013-03-27 09:19:00,
2013-03-27 02:25:00,45.0,36.5,29.97,West,279,0.0,0.0,72,0.00,,,0.00,meteohub,2013-03-27 09:25:00,
2013-03-27 02:30:00,45.0,36.5,29.97,West,279,0.0,0.0,72,0.00,,,0.00,meteohub,2013-03-27 09:30:00,
2013-03-27 02:35:00,45.0,36.5,29.97,West,279,0.0,0.0,72,0.00,,,0.00,meteohub,2013-03-27 09:35:00,
2013-03-27 02:40:00,45.0,36.1,29.97,West,279,0.0,0.0,71,0.00,,,0.00,meteohub,2013-03-27 09:40:00,
2013-03-27 02:45:00,45.0,36.1,29.96,West,279,0.0,0.0,71,0.00,,,0.00,meteohub,2013-03-27 09:45:00,
2013-03-27 02:50:00,45.0,36.1,29.96,West,279,0.0,0.0,71,0.00,,,0.00,meteohub,2013-03-27 09:50:00,
2013-03-27 02:55:00,45.0,36.1,29.96,West,279,0.0,0.0,71,0.00,,,0.00,meteohub,2013-03-27 09:55:00,
2013-03-27 03:00:00,45.0,36.1,29.96,West,279,0.0,0.0,71,0.00,,,0.00,meteohub,2013-03-27 10:00:00,
2013-03-27 03:05:00,45.0,36.1,29.96,West,279,0.0,0.0,71,0.00,,,0.00,meteohub,2013-03-27 10:05:00,
2013-03-27 03:10:00,44.8,36.0,29.96,West,279,0.0,0.0,71,0.00,,,0.00,meteohub,2013-03-27 10:10:00,
2013-03-27 03:15:00,44.8,36.0,29.96,West,279,0.0,0.0,71,0.00,,,0.00,meteohub,2013-03-27 10:15:00,
2013-03-27 03:20:00,44.8,36.0,29.96,West,279,0.0,0.0,71,0.00,,,0.00,meteohub,2013-03-27 10:20:00,
2013-03-27 03:25:00,44.8,36.0,29.96,West,279,0.0,0.0,71,0.00,,,0.00,meteohub,2013-03-27 10:25:00,
2013-03-27 03:30:00,44.8,36.0,29.96,West,279,0.0,0.0,71,0.00,,,0.00,meteohub,2013-03-27 10:30:00,
2013-03-27 03:35:00,44.6,35.8,29.96,West,279,0.0,0.0,71,0.00,,,0.00,meteohub,2013-03-27 10:35:00,
2013-03-27 03:40:00,44.6,35.8,29.96,West,279,0.0,0.0,71,0.00,,,0.00,meteohub,2013-03-27 10:40:00,
2013-03-27 03:45:00,44.4,35.6,29.95,West,279,0.0,0.0,71,0.00,,,0.00,meteohub,2013-03-27 10:45:00,
2013-03-27 03:50:00,44.4,35.6,29.96,West,279,0.0,0.0,71,0.00,,,0.00,meteohub,2013-03-27 10:50:00,
2013-03-27 03:55:00,44.2,35.4,29.96,West,279,0.0,0.0,71,0.00,,,0.00,meteohub,2013-03-27 10:55:00,
2013-03-27 04:00:00,44.2,35.4,29.95,West,279,0.0,0.0,71,0.00,,,0.00,meteohub,2013-03-27 11:00:00,
2013-03-27 04:05:00,44.2,35.4,29.95,West,279,0.0,0.0,71,0.00,,,0.00,meteohub,2013-03-27 11:05:00,
2013-03-27 04:10:00,44.1,35.2,29.95,West,279,0.0,0.0,71,0.00,,,0.00,meteohub,2013-03-27 11:10:00,
2013-03-27 04:15:00,44.1,35.2,29.95,West,279,0.0,0.0,71,0.00,,,0.00,meteohub,2013-03-27 11:15:00,
2013-03-27 04:20:00,44.1,35.2,29.95,West,279,0.0,0.0,71,0.00,,,0.00,meteohub,2013-03-27 11:20:00,
2013-03-27 04:25:00,44.1,35.2,29.95,West,279,0.0,0.0,71,0.00,,,0.00,meteohub,2013-03-27 11:25:00,
2013-03-27 04:30:00,44.1,35.2,29.95,West,279,0.0,0.0,71,0.00,,,0.00,meteohub,2013-03-27 11:30:00,
2013-03-27 04:35:00,44.1,35.2,29.95,West,279,0.0,0.0,71,0.00,,,0.00,meteohub,2013-03-27 11:35:00,
2013-03-27 04:40:00,44.1,35.2,29.95,West,279,0.0,0.0,71,0.00,,,0.00,meteohub,2013-03-27 11:40:00,
2013-03-27 04:45:00,44.1,35.2,29.95,West,279,0.0,0.0,71,0.00,,,0.00,meteohub,2013-03-27 11:45:00,
2013-03-27 04:50:00,44.1,35.2,29.95,West,279,0.0,0.0,71,0.00,,,0.00,meteohub,2013-03-27 11:50:00,
2013-03-27 04:55:00,43.9,35.1,29.95,West,279,0.0,0.0,71,0.00,,,0.00,meteohub,2013-03-27 11:55:00,
2013-03-27 05:00:00,43.9,35.1,29.95,West,279,0.0,0.0,71,0.00,,,0.00,meteohub,2013-03-27 12:00:00,
2013-03-27 05:05:00,43.9,35.1,29.95,West,279,0.0,0.0,71,0.00,,,0.00,meteohub,2013-03-27 12:05:00,
2013-03-27 05:10:00,43.9,35.1,29.95,West,279,0.0,0.0,71,0.00,,,0.00,meteohub,2013-03-27 12:10:00,
2013-03-27 05:15:00,43.9,35.1,29.94,West,279,0.0,0.0,71,0.00,,,0.00,meteohub,2013-03-27 12:15:00,
2013-03-27 05:20:00,43.7,34.9,29.94,West,279,0.0,0.0,71,0.00,,,0.01,meteohub,2013-03-27 12:20:00,
2013-03-27 05:25:00,43.7,34.9,29.95,West,279,0.0,0.0,71,0.00,,,0.00,meteohub,2013-03-27 12:25:00,
2013-03-27 05:30:00,43.7,34.9,29.95,West,279,0.0,0.0,71,0.00,,,0.00,meteohub,2013-03-27 12:30:00,
2013-03-27 05:35:00,43.9,35.1,29.94,West,279,0.0,0.0,71,0.00,,,0.00,meteohub,2013-03-27 12:35:00,
2013-03-27 05:40:00,43.7,34.9,29.94,West,279,0.0,0.0,71,0.00,,,0.00,meteohub,2013-03-27 12:40:00,
2013-03-27 05:45:00,43.9,35.1,29.94,West,279,0.0,0.0,71,0.00,,,0.00,meteohub,2013-03-27 12:45:00,
2013-03-27 05:50:00,43.7,34.9,29.94,West,279,0.0,0.0,71,0.00,,,0.00,meteohub,2013-03-27 12:50:00,
2013-03-27 05:55:00,43.7,34.9,29.95,West,279,0.0,0.0,71,0.00,,,0.00,meteohub,2013-03-27 12:55:00,
2013-03-27 06:00:00,43.7,34.9,29.95,West,279,0.0,0.0,71,0.00,,,0.00,meteohub,2013-03-27 13:00:00,
2013-03-27 06:06:00,43.7,34.9,29.94,West,279,0.0,0.0,71,0.00,,,0.00,meteohub,2013-03-27 13:06:00,
2013-03-27 06:11:00,43.5,34.7,29.95,West,279,0.0,0.0,71,0.00,,,0.00,meteohub,2013-03-27 13:11:00,
2013-03-27 06:16:00,43.7,34.9,29.94,West,279,0.0,0.0,71,0.00,,,0.00,meteohub,2013-03-27 13:16:00,
2013-03-27 06:21:00,43.7,34.9,29.95,West,279,0.0,0.0,71,0.00,,,0.00,meteohub,2013-03-27 13:21:00,
2013-03-27 06:26:00,43.5,34.7,29.95,West,279,0.0,0.0,71,0.00,,,0.00,meteohub,2013-03-27 13:26:00,
2013-03-27 06:31:00,43.5,34.7,29.95,West,279,0.0,0.0,71,0.00,,,0.00,meteohub,2013-03-27 13:31:00,
2013-03-27 06:36:00,43.5,34.3,29.95,West,279,0.0,0.0,70,0.00,,,0.00,meteohub,2013-03-27 13:36:00,
2013-03-27 06:41:00,43.5,34.3,29.95,West,279,0.0,0.0,70,0.00,,,0.00,meteohub,2013-03-27 13:41:00,
2013-03-27 06:46:00,43.5,34.3,29.95,West,279,0.0,0.0,70,0.00,,,0.00,meteohub,2013-03-27 13:46:00,
2013-03-27 06:51:00,43.5,34.3,29.95,West,279,0.0,0.0,70,0.00,,,0.00,meteohub,2013-03-27 13:51:00,
2013-03-27 06:56:00,43.5,34.3,29.95,West,279,0.0,0.0,70,0.00,,,0.00,meteohub,2013-03-27 13:56:00,
2013-03-27 07:01:00,43.5,34.3,29.95,West,279,0.0,0.0,70,0.00,,,0.00,meteohub,2013-03-27 14:01:00,
2013-03-27 07:07:00,43.5,34.3,29.95,West,279,0.0,0.0,70,0.00,,,0.00,meteohub,2013-03-27 14:07:00,
2013-03-27 07:12:00,43.3,34.2,29.95,West,279,0.0,0.0,70,0.00,,,0.00,meteohub,2013-03-27 14:12:00,
2013-03-27 07:17:00,43.5,34.3,29.95,West,279,0.0,0.0,70,0.00,,,0.00,meteohub,2013-03-27 14:17:00,
2013-03-27 07:22:00,43.5,34.3,29.95,West,279,0.0,0.0,70,0.00,,,0.00,meteohub,2013-03-27 14:22:00,
2013-03-27 07:27:00,43.5,34.3,29.95,West,279,0.0,0.0,70,0.00,,,0.00,meteohub,2013-03-27 14:27:00,
2013-03-27 07:32:00,43.5,34.3,29.95,West,279,0.0,0.0,70,0.00,,,0.00,meteohub,2013-03-27 14:32:00,
2013-03-27 07:37:00,43.5,34.3,29.95,West,279,0.0,0.0,70,0.00,,,0.00,meteohub,2013-03-27 14:37:00,
2013-03-27 07:42:00,43.7,34.5,29.95,West,279,0.0,0.0,70,0.00,,,0.00,meteohub,2013-03-27 14:42:00,
2013-03-27 07:47:00,43.9,34.7,29.95,West,279,0.0,0.0,70,0.00,,,0.00,meteohub,2013-03-27 14:47:00,
2013-03-27 07:52:00,44.1,34.9,29.95,West,279,0.0,0.0,70,0.00,,,0.00,meteohub,2013-03-27 14:52:00,
2013-03-27 07:57:00,44.1,34.9,29.95,West,279,0.0,0.0,70,0.00,,,0.00,meteohub,2013-03-27 14:57:00,
2013-03-27 08:02:00,44.2,35.1,29.96,West,279,0.0,0.0,70,0.00,,,0.00,meteohub,2013-03-27 15:02:00,
2013-03-27 08:07:00,44.4,35.2,29.96,West,279,0.0,0.0,70,0.00,,,0.00,meteohub,2013-03-27 15:07:00,
2013-03-27 08:12:00,44.8,35.6,29.96,West,279,0.0,0.0,70,0.00,,,0.00,meteohub,2013-03-27 15:12:00,
2013-03-27 08:17:00,45.0,35.8,29.96,West,279,0.0,0.0,70,0.00,,,0.00,meteohub,2013-03-27 15:17:00,
2013-03-27 08:22:00,45.1,36.0,29.96,West,279,0.0,0.0,70,0.00,,,0.00,meteohub,2013-03-27 15:22:00,
2013-03-27 08:27:00,45.1,36.0,29.96,West,279,0.0,0.0,70,0.00,,,0.00,meteohub,2013-03-27 15:27:00,
2013-03-27 08:32:00,45.3,35.8,29.96,West,279,0.0,0.0,69,0.00,,,0.00,meteohub,2013-03-27 15:32:00,
2013-03-27 08:37:00,45.7,36.1,29.96,West,279,0.0,0.0,69,0.00,,,0.00,meteohub,2013-03-27 15:37:00,
2013-03-27 08:43:00,45.7,36.1,29.96,West,279,0.0,0.0,69,0.00,,,0.00,meteohub,2013-03-27 15:43:00,
2013-03-27 08:48:00,46.0,36.9,29.96,West,279,0.0,1.0,70,0.00,,,0.00,meteohub,2013-03-27 15:48:00,
2013-03-27 08:53:00,46.2,37.0,29.96,West,279,0.0,1.0,70,0.00,,,0.00,meteohub,2013-03-27 15:53:00,
2013-03-27 08:58:00,46.8,37.9,29.96,West,279,0.0,0.0,71,0.00,,,0.00,meteohub,2013-03-27 15:58:00,
2013-03-27 09:05:00,46.9,38.7,29.96,West,279,0.0,0.0,73,0.00,,,0.00,meteohub,2013-03-27 16:05:00,
2013-03-27 09:10:00,47.7,40.8,29.96,West,279,0.0,0.0,77,0.00,,,0.00,meteohub,2013-03-27 16:10:00,
2013-03-27 09:15:00,47.8,41.9,29.96,West,279,0.0,1.0,80,0.00,,,0.00,meteohub,2013-03-27 16:15:00,
2013-03-27 09:20:00,48.2,42.3,29.96,West,279,0.0,1.0,80,0.00,,,0.00,meteohub,2013-03-27 16:20:00,
2013-03-27 09:25:00,48.4,43.2,29.96,West,279,0.0,1.0,82,0.00,,,0.00,meteohub,2013-03-27 16:25:00,
2013-03-27 09:30:00,48.7,43.9,29.96,West,279,0.0,0.0,83,0.00,,,0.00,meteohub,2013-03-27 16:30:00,
2013-03-27 09:35:00,48.9,44.1,29.96,West,279,0.0,0.0,83,0.00,,,0.00,meteohub,2013-03-27 16:35:00,
2013-03-27 09:40:00,49.3,44.6,29.96,West,279,0.0,0.0,84,0.00,,,0.00,meteohub,2013-03-27 16:40:00,
2013-03-27 09:45:00,49.3,44.4,29.96,West,279,0.0,1.0,83,0.00,,,0.00,meteohub,2013-03-27 16:45:00,
2013-03-27 09:50:00,49.6,44.8,29.96,West,279,1.0,1.0,83,0.00,,,0.00,meteohub,2013-03-27 16:50:00,
2013-03-27 09:55:00,50.2,45.1,29.96,West,279,0.0,1.0,83,0.00,,,0.00,meteohub,2013-03-27 16:55:00,
2013-03-27 10:00:00,50.4,45.3,29.96,West,279,0.0,1.0,83,0.00,,,0.00,meteohub,2013-03-27 17:00:00,
2013-03-27 10:06:00,50.5,45.3,29.96,South,186,0.0,1.0,82,0.00,,,0.00,meteohub,2013-03-27 17:06:00,
2013-03-27 10:11:00,50.7,45.5,29.96,South,186,0.0,1.0,82,0.00,,,0.00,meteohub,2013-03-27 17:11:00,
2013-03-27 10:16:00,51.1,45.9,29.96,SSW,200,0.0,1.0,82,0.00,,,0.00,meteohub,2013-03-27 17:16:00,
2013-03-27 10:21:00,51.1,45.5,29.96,SSW,208,0.0,1.0,81,0.00,,,0.00,meteohub,2013-03-27 17:21:00,
2013-03-27 10:26:00,50.9,45.3,29.96,SSW,209,0.0,1.0,81,0.00,,,0.00,meteohub,2013-03-27 17:26:00,
2013-03-27 10:31:00,51.1,45.5,29.96,SSW,209,0.0,3.0,81,0.00,,,0.00,meteohub,2013-03-27 17:31:00,
2013-03-27 10:36:00,51.3,46.0,29.96,West,265,0.0,3.0,82,0.00,,,0.00,meteohub,2013-03-27 17:36:00,
2013-03-27 10:41:00,51.6,46.2,29.96,West,265,0.0,3.0,82,0.00,,,0.00,meteohub,2013-03-27 17:41:00,
2013-03-27 10:47:00,51.8,46.2,29.96,West,265,0.0,4.0,81,0.00,,,0.00,meteohub,2013-03-27 17:47:00,
2013-03-27 10:51:00,51.8,45.9,29.96,West,265,0.0,4.0,80,0.00,,,0.00,meteohub,2013-03-27 17:51:00,
2013-03-27 10:57:00,51.8,45.9,29.96,West,265,0.0,2.0,80,0.00,,,0.00,meteohub,2013-03-27 17:57:00,
2013-03-27 11:02:00,51.8,45.9,29.96,West,265,0.0,2.0,80,0.00,,,0.00,meteohub,2013-03-27 18:02:00,
2013-03-27 11:07:00,51.8,45.9,29.96,West,265,0.0,2.0,80,0.00,,,0.00,meteohub,2013-03-27 18:07:00,
2013-03-27 11:12:00,52.2,46.2,29.96,WNW,292,0.0,3.0,80,0.00,,,0.00,meteohub,2013-03-27 18:12:00,
2013-03-27 11:17:00,52.2,45.5,29.96,SW,219,4.0,4.0,78,0.00,,,0.00,meteohub,2013-03-27 18:17:00,
2013-03-27 11:22:00,52.0,45.7,29.96,SW,219,0.0,4.0,79,0.00,,,0.00,meteohub,2013-03-27 18:22:00,
2013-03-27 11:27:00,51.8,45.1,29.96,SW,219,0.0,4.0,78,0.00,,,0.00,meteohub,2013-03-27 18:27:00,
2013-03-27 11:32:00,52.3,46.0,29.97,SW,219,1.0,4.0,79,0.00,,,0.00,meteohub,2013-03-27 18:32:00,
2013-03-27 11:37:00,52.9,46.6,29.96,SW,219,0.0,3.0,79,0.00,,,0.00,meteohub,2013-03-27 18:37:00,
2013-03-27 11:42:00,53.6,46.2,29.96,ENE,72,1.0,3.0,76,0.00,,,0.00,meteohub,2013-03-27 18:42:00,
2013-03-27 11:47:00,54.1,46.8,29.96,SE,130,0.0,4.0,76,0.00,,,0.00,meteohub,2013-03-27 18:47:00,
2013-03-27 11:52:00,54.5,45.7,29.96,SE,128,2.0,4.0,72,0.00,,,0.00,meteohub,2013-03-27 18:52:00,
2013-03-27 11:57:00,54.5,45.7,29.96,NE,44,1.0,5.0,72,0.00,,,0.00,meteohub,2013-03-27 18:57:00,
2013-03-27 12:02:00,54.7,45.5,29.96,ENE,65,0.0,5.0,71,0.00,,,0.00,meteohub,2013-03-27 19:02:00,
2013-03-27 12:07:00,54.7,44.8,29.96,East,82,0.0,5.0,69,0.00,,,0.00,meteohub,2013-03-27 19:07:00,
2013-03-27 12:12:00,54.9,46.0,29.96,NW,319,2.0,4.0,72,0.00,,,0.00,meteohub,2013-03-27 19:12:00,
2013-03-27 12:17:00,55.2,46.8,29.96,ENE,72,0.0,4.0,73,0.00,,,0.00,meteohub,2013-03-27 19:17:00,
2013-03-27 12:22:00,55.0,46.2,29.96,East,91,0.0,3.0,72,0.00,,,0.00,meteohub,2013-03-27 19:22:00,
2013-03-27 12:27:00,55.0,45.5,29.96,East,90,0.0,4.0,70,0.00,,,0.00,meteohub,2013-03-27 19:27:00,
2013-03-27 12:32:00,54.7,45.1,29.96,ESE,122,0.0,4.0,70,0.00,,,0.00,meteohub,2013-03-27 19:32:00,
2013-03-27 12:37:00,54.7,45.9,29.96,ESE,122,0.0,3.0,72,0.00,,,0.00,meteohub,2013-03-27 19:37:00,
2013-03-27 12:42:00,54.7,45.9,29.96,NW,315,0.0,3.0,72,0.00,,,0.00,meteohub,2013-03-27 19:42:00,
2013-03-27 12:47:00,55.0,46.9,29.96,WNW,294,1.0,4.0,74,0.00,,,0.00,meteohub,2013-03-27 19:47:00,
2013-03-27 12:52:00,55.2,46.8,29.96,West,259,2.0,4.0,73,0.00,,,0.00,meteohub,2013-03-27 19:52:00,
2013-03-27 12:58:00,55.4,46.2,29.96,West,259,0.0,4.0,71,0.00,,,0.00,meteohub,2013-03-27 19:58:00,
2013-03-27 13:03:00,55.4,46.9,29.96,West,269,1.0,3.0,73,0.00,,,0.00,meteohub,2013-03-27 20:03:00,
2013-03-27 13:08:00,55.6,47.5,29.96,West,268,3.0,3.0,74,0.00,,,0.00,meteohub,2013-03-27 20:08:00,
2013-03-27 13:13:00,56.3,48.2,29.96,NNW,331,2.0,5.0,74,0.00,,,0.00,meteohub,2013-03-27 20:13:00,
2013-03-27 13:18:00,56.7,46.6,29.96,WSW,257,1.0,5.0,69,0.00,,,0.00,meteohub,2013-03-27 20:18:00,
2013-03-27 13:23:00,56.8,47.8,29.96,West,271,0.0,4.0,72,0.00,,,0.00,meteohub,2013-03-27 20:23:00,
2013-03-27 13:28:00,56.1,46.8,29.96,WSW,248,0.0,4.0,71,0.00,,,0.00,meteohub,2013-03-27 20:28:00,
2013-03-27 13:33:00,55.8,46.9,29.96,West,263,0.0,4.0,72,0.00,,,0.00,meteohub,2013-03-27 20:33:00,
2013-03-27 13:38:00,56.1,47.7,29.96,WNW,285,2.0,6.0,73,0.00,,,0.00,meteohub,2013-03-27 20:38:00,
2013-03-27 13:43:00,56.7,48.0,29.96,WNW,284,1.0,6.0,73,0.00,,,0.00,meteohub,2013-03-27 20:43:00,
2013-03-27 13:48:00,56.8,47.1,29.96,West,277,0.0,6.0,70,0.00,,,0.00,meteohub,2013-03-27 20:48:00,
2013-03-27 13:53:00,56.7,47.7,29.96,NW,304,0.0,6.0,72,0.00,,,0.00,meteohub,2013-03-27 20:53:00,
2013-03-27 13:58:00,56.5,47.5,29.96,West,263,3.0,4.0,72,0.00,,,0.00,meteohub,2013-03-27 20:58:00,
2013-03-27 14:03:00,56.5,48.0,29.96,West,263,4.0,6.0,73,0.00,,,0.00,meteohub,2013-03-27 21:03:00,
2013-03-27 14:08:00,55.9,47.1,29.96,WSW,239,2.0,6.0,72,0.00,,,0.00,meteohub,2013-03-27 21:08:00,
2013-03-27 14:13:00,55.8,48.4,29.96,WNW,303,0.0,6.0,76,0.00,,,0.00,meteohub,2013-03-27 21:13:00,
2013-03-27 14:18:00,56.1,48.4,29.96,WNW,284,1.0,4.0,75,0.00,,,0.00,meteohub,2013-03-27 21:18:00,
2013-03-27 14:23:00,56.3,48.9,29.96,West,271,0.0,4.0,76,0.00,,,0.00,meteohub,2013-03-27 21:23:00,
2013-03-27 14:28:00,56.5,48.0,29.96,West,267,5.0,5.0,73,0.00,,,0.00,meteohub,2013-03-27 21:28:00,
2013-03-27 14:33:00,56.5,48.0,29.96,WSW,257,0.0,6.0,73,0.00,,,0.00,meteohub,2013-03-27 21:33:00,
2013-03-27 14:38:00,56.5,48.4,29.96,West,267,0.0,6.0,74,0.00,,,0.00,meteohub,2013-03-27 21:38:00,
2013-03-27 14:43:00,56.5,48.0,29.96,West,272,0.0,6.0,73,0.00,,,0.00,meteohub,2013-03-27 21:43:00,
2013-03-27 14:48:00,56.7,47.7,29.96,WNW,298,2.0,6.0,72,0.00,,,0.00,meteohub,2013-03-27 21:48:00,
2013-03-27 14:53:00,57.0,48.0,29.96,NNE,21,0.0,6.0,72,0.00,,,0.00,meteohub,2013-03-27 21:53:00,
2013-03-27 14:58:00,57.4,48.0,29.96,West,270,0.0,6.0,71,0.00,,,0.00,meteohub,2013-03-27 21:58:00,
2013-03-27 15:03:00,57.6,48.2,29.96,West,268,5.0,6.0,71,0.00,,,0.00,meteohub,2013-03-27 22:03:00,
2013-03-27 15:08:00,57.6,48.6,29.96,WSW,252,0.0,6.0,72,0.00,,,0.00,meteohub,2013-03-27 22:08:00,
2013-03-27 15:13:00,57.4,48.0,29.96,WNW,288,0.0,6.0,71,0.00,,,0.00,meteohub,2013-03-27 22:13:00,
2013-03-27 15:18:00,57.6,48.2,29.96,WNW,289,1.0,6.0,71,0.00,,,0.00,meteohub,2013-03-27 22:18:00,
2013-03-27 15:23:00,57.7,48.7,29.96,NW,304,0.0,6.0,72,0.00,,,0.00,meteohub,2013-03-27 22:23:00,
2013-03-27 15:28:00,58.3,48.6,29.96,WNW,302,1.0,6.0,70,0.00,,,0.00,meteohub,2013-03-27 22:28:00,
2013-03-27 15:33:00,58.6,48.9,29.96,SSE,162,0.0,5.0,70,0.00,,,0.00,meteohub,2013-03-27 22:33:00,
2013-03-27 15:38:00,59.4,48.7,29.95,North,9,0.0,6.0,68,0.00,,,0.00,meteohub,2013-03-27 22:38:00,
2013-03-27 15:43:00,59.2,48.2,29.95,WSW,243,0.0,6.0,67,0.00,,,0.00,meteohub,2013-03-27 22:43:00,
2013-03-27 15:48:00,58.6,48.2,29.95,SSE,165,1.0,6.0,68,0.00,,,0.00,meteohub,2013-03-27 22:48:00,
2013-03-27 15:53:00,58.1,48.4,29.96,NW,312,3.0,3.0,70,0.00,,,0.00,meteohub,2013-03-27 22:53:00,
2013-03-27 15:58:00,57.6,47.5,29.96,North,5,0.0,6.0,69,0.00,,,0.00,meteohub,2013-03-27 22:58:00,
2013-03-27 16:04:00,57.0,47.7,29.96,East,96,1.0,6.0,71,0.00,,,0.00,meteohub,2013-03-27 23:04:00,
2013-03-27 16:09:00,56.7,48.0,29.96,NNE,19,0.0,6.0,73,0.00,,,0.00,meteohub,2013-03-27 23:09:00,
2013-03-27 16:14:00,56.3,48.9,29.96,North,0,0.0,5.0,76,0.00,,,0.00,meteohub,2013-03-27 23:14:00,
2013-03-27 16:19:00,55.8,48.9,29.96,NNE,30,0.0,5.0,78,0.00,,,0.00,meteohub,2013-03-27 23:19:00,
2013-03-27 16:24:00,55.4,48.7,29.96,NNE,30,0.0,4.0,78,0.00,,,0.00,meteohub,2013-03-27 23:24:00,
2013-03-27 16:29:00,55.0,48.9,29.96,NNE,30,0.0,4.0,80,0.00,,,0.00,meteohub,2013-03-27 23:29:00,
2013-03-27 16:34:00,54.9,49.1,29.96,NNE,30,0.0,1.0,81,0.00,,,0.00,meteohub,2013-03-27 23:34:00,
2013-03-27 16:39:00,54.7,48.9,29.96,NNE,30,0.0,0.0,81,0.00,,,0.00,meteohub,2013-03-27 23:39:00,
2013-03-27 16:44:00,54.1,48.7,29.96,NNE,30,0.0,1.0,82,0.01,,,0.01,meteohub,2013-03-27 23:44:00,
2013-03-27 16:49:00,54.1,48.7,29.96,NNE,30,0.0,2.0,82,0.01,,,0.01,meteohub,2013-03-27 23:49:00,
2013-03-27 16:54:00,54.0,48.6,29.96,North,0,0.0,2.0,82,0.02,,,0.02,meteohub,2013-03-27 23:54:00,
2013-03-27 16:59:00,54.1,48.4,29.96,North,0,0.0,1.0,81,0.02,,,0.02,meteohub,2013-03-27 23:59:00,
2013-03-27 17:04:00,54.0,48.6,29.96,North,0,0.0,1.0,82,0.02,,,0.02,meteohub,2013-03-28 00:04:00,
2013-03-27 17:09:00,54.1,48.0,29.96,North,0,0.0,1.0,80,0.02,,,0.02,meteohub,2013-03-28 00:09:00,
2013-03-27 17:14:00,54.1,48.0,29.96,North,0,0.0,1.0,80,0.02,,,0.02,meteohub,2013-03-28 00:14:00,
2013-03-27 17:19:00,54.0,48.6,29.96,North,349,0.0,1.0,82,0.02,,,0.02,meteohub,2013-03-28 00:19:00,
2013-03-27 17:24:00,54.1,48.7,29.96,NNW,348,0.0,1.0,82,0.02,,,0.02,meteohub,2013-03-28 00:24:00,
2013-03-27 17:29:00,54.1,48.7,29.96,NW,311,1.0,2.0,82,0.02,,,0.02,meteohub,2013-03-28 00:29:00,
2013-03-27 17:34:00,54.1,48.7,29.96,NNW,347,2.0,2.0,82,0.02,,,0.02,meteohub,2013-03-28 00:34:00,
2013-03-27 17:39:00,54.1,48.4,29.96,NNW,344,0.0,3.0,81,0.02,,,0.02,meteohub,2013-03-28 00:39:00,
2013-03-27 17:44:00,54.1,48.4,29.96,WNW,288,0.0,3.0,81,0.01,,,0.02,meteohub,2013-03-28 00:44:00,
2013-03-27 17:49:00,54.1,48.4,29.96,NW,310,0.0,4.0,81,0.01,,,0.02,meteohub,2013-03-28 00:49:00,
2013-03-27 17:54:00,54.1,48.4,29.96,NE,44,0.0,4.0,81,0.00,,,0.02,meteohub,2013-03-28 00:54:00,
2013-03-27 17:59:00,54.1,48.0,29.96,North,355,1.0,4.0,80,0.00,,,0.02,meteohub,2013-03-28 00:59:00,
2013-03-27 18:04:00,54.1,48.0,29.96,NNW,338,0.0,3.0,80,0.00,,,0.02,meteohub,2013-03-28 01:04:00,
2013-03-27 18:09:00,54.1,48.0,29.96,NW,315,0.0,3.0,80,0.00,,,0.02,meteohub,2013-03-28 01:09:00,
2013-03-27 18:14:00,54.1,48.0,29.96,East,96,3.0,3.0,80,0.00,,,0.02,meteohub,2013-03-28 01:14:00,
2013-03-27 18:19:00,54.1,47.8,29.96,East,98,2.0,3.0,79,0.00,,,0.02,meteohub,2013-03-28 01:19:00,
2013-03-27 18:24:00,54.1,47.8,29.96,East,89,0.0,3.0,79,0.00,,,0.02,meteohub,2013-03-28 01:24:00,
2013-03-27 18:29:00,54.3,48.0,29.96,NW,318,3.0,3.0,79,0.00,,,0.02,meteohub,2013-03-28 01:29:00,
2013-03-27 18:34:00,54.3,48.2,29.96,NW,318,0.0,3.0,80,0.00,,,0.02,meteohub,2013-03-28 01:34:00,
2013-03-27 18:39:00,54.3,48.2,29.96,North,349,0.0,3.0,80,0.00,,,0.02,meteohub,2013-03-28 01:39:00,
2013-03-27 18:44:00,54.1,48.0,29.96,North,349,0.0,3.0,80,0.00,,,0.02,meteohub,2013-03-28 01:44:00,
2013-03-27 18:49:00,54.1,48.4,29.96,NNW,341,0.0,1.0,81,0.00,,,0.02,meteohub,2013-03-28 01:49:00,
2013-03-27 18:54:00,54.0,48.2,29.96,NNW,341,0.0,1.0,81,0.00,,,0.02,meteohub,2013-03-28 01:54:00,
2013-03-27 18:59:00,53.4,48.0,29.96,NNW,327,0.0,1.0,82,0.00,,,0.02,meteohub,2013-03-28 01:59:00,
2013-03-27 19:04:00,53.2,47.8,29.96,NNW,327,0.0,2.0,82,0.00,,,0.02,meteohub,2013-03-28 02:04:00,
2013-03-27 19:09:00,53.1,47.7,29.96,NNW,327,0.0,2.0,82,0.00,,,0.02,meteohub,2013-03-28 02:09:00,
2013-03-27 19:14:00,52.9,47.5,29.96,NNW,327,0.0,2.0,82,0.00,,,0.02,meteohub,2013-03-28 02:14:00,
2013-03-27 19:19:00,52.9,47.5,29.96,NNW,327,0.0,0.0,82,0.00,,,0.02,meteohub,2013-03-28 02:19:00,
2013-03-27 19:24:00,52.7,47.3,29.96,NNW,327,0.0,0.0,82,0.00,,,0.02,meteohub,2013-03-28 02:24:00,
2013-03-27 19:29:00,52.3,46.9,29.96,NNW,327,0.0,0.0,82,0.00,,,0.02,meteohub,2013-03-28 02:29:00,
2013-03-27 19:34:00,52.2,46.6,29.96,NNW,327,0.0,0.0,81,0.00,,,0.02,meteohub,2013-03-28 02:34:00,
2013-03-27 19:39:00,51.8,46.2,29.96,NNW,327,0.0,0.0,81,0.00,,,0.02,meteohub,2013-03-28 02:39:00,
2013-03-27 19:44:00,51.4,45.9,29.96,NNW,327,0.0,0.0,81,0.00,,,0.02,meteohub,2013-03-28 02:44:00,
2013-03-27 19:49:00,51.3,45.7,29.96,NNW,327,0.0,0.0,81,0.00,,,0.02,meteohub,2013-03-28 02:49:00,
2013-03-27 19:54:00,51.1,45.1,29.96,NNW,327,0.0,0.0,80,0.00,,,0.02,meteohub,2013-03-28 02:54:00,
2013-03-27 19:59:00,50.5,45.0,29.96,NNW,327,0.0,0.0,81,0.00,,,0.02,meteohub,2013-03-28 02:59:00,
2013-03-27 20:04:00,50.4,44.8,29.96,NNW,327,0.0,0.0,81,0.00,,,0.02,meteohub,2013-03-28 03:04:00,
2013-03-27 20:09:00,50.0,44.4,29.96,NNW,327,0.0,0.0,81,0.00,,,0.02,meteohub,2013-03-28 03:09:00,
2013-03-27 20:14:00,49.6,43.7,29.96,NNW,327,0.0,0.0,80,0.00,,,0.02,meteohub,2013-03-28 03:14:00,
2013-03-27 20:20:00,49.3,43.3,29.96,NNW,327,0.0,0.0,80,0.00,,,0.02,meteohub,2013-03-28 03:20:00,
2013-03-27 20:25:00,48.9,43.0,29.97,NNW,327,0.0,0.0,80,0.00,,,0.02,meteohub,2013-03-28 03:25:00,
2013-03-27 20:30:00,48.6,42.6,29.97,NNW,327,0.0,0.0,80,0.00,,,0.02,meteohub,2013-03-28 03:30:00,
2013-03-27 20:35:00,47.8,41.9,29.97,NNW,327,0.0,0.0,80,0.00,,,0.02,meteohub,2013-03-28 03:35:00,
2013-03-27 20:40:00,47.5,41.5,29.97,NNW,327,0.0,0.0,80,0.00,,,0.02,meteohub,2013-03-28 03:40:00,
2013-03-27 20:45:00,46.9,41.2,29.97,NNW,327,0.0,0.0,80,0.00,,,0.02,meteohub,2013-03-28 03:45:00,
2013-03-27 20:50:00,46.6,40.8,29.98,NNW,327,0.0,0.0,80,0.00,,,0.02,meteohub,2013-03-28 03:50:00,
2013-03-27 20:55:00,46.2,40.1,29.98,NNW,327,0.0,0.0,79,0.00,,,0.02,meteohub,2013-03-28 03:55:00,
2013-03-27 21:00:00,45.7,39.9,29.98,NNW,327,0.0,0.0,80,0.00,,,0.02,meteohub,2013-03-28 04:00:00,
2013-03-27 21:05:00,45.3,39.2,29.98,NNW,327,0.0,0.0,79,0.00,,,0.02,meteohub,2013-03-28 04:05:00,
2013-03-27 21:10:00,44.8,38.7,29.98,NNW,327,0.0,0.0,79,0.00,,,0.02,meteohub,2013-03-28 04:10:00,
2013-03-27 21:15:00,44.4,38.3,29.98,NNW,327,0.0,0.0,79,0.00,,,0.02,meteohub,2013-03-28 04:15:00,
2013-03-27 21:20:00,44.2,37.8,29.98,NNW,327,0.0,0.0,78,0.00,,,0.02,meteohub,2013-03-28 04:20:00,
2013-03-27 21:25:00,44.1,37.4,29.98,NNW,327,0.0,0.0,77,0.00,,,0.02,meteohub,2013-03-28 04:25:00,
2013-03-27 21:30:00,43.9,37.2,29.99,NNW,327,0.0,0.0,77,0.00,,,0.02,meteohub,2013-03-28 04:30:00,
2013-03-27 21:35:00,43.9,36.9,29.99,NNW,327,0.0,0.0,76,0.00,,,0.02,meteohub,2013-03-28 04:35:00,
2013-03-27 21:41:00,43.5,36.9,29.99,NNW,327,0.0,0.0,77,0.00,,,0.02,meteohub,2013-03-28 04:41:00,
2013-03-27 21:46:00,43.3,36.3,29.99,NNW,327,0.0,0.0,76,0.00,,,0.02,meteohub,2013-03-28 04:46:00,
2013-03-27 21:51:00,43.2,36.1,29.99,NNW,327,0.0,0.0,76,0.00,,,0.02,meteohub,2013-03-28 04:51:00,
2013-03-27 21:56:00,43.0,36.0,29.99,NNW,327,0.0,0.0,76,0.00,,,0.02,meteohub,2013-03-28 04:56:00,
2013-03-27 22:01:00,42.8,35.4,29.99,NNW,327,0.0,0.0,75,0.00,,,0.02,meteohub,2013-03-28 05:01:00,
2013-03-27 22:06:00,42.8,35.1,29.99,NNW,327,0.0,0.0,74,0.00,,,0.02,meteohub,2013-03-28 05:06:00,
2013-03-27 22:11:00,42.6,34.9,29.99,NNW,327,0.0,0.0,74,0.00,,,0.02,meteohub,2013-03-28 05:11:00,
2013-03-27 22:16:00,42.4,35.1,29.99,NNW,327,0.0,0.0,75,0.00,,,0.02,meteohub,2013-03-28 05:16:00,
2013-03-27 22:21:00,42.3,34.9,29.99,NNW,327,0.0,0.0,75,0.00,,,0.02,meteohub,2013-03-28 05:21:00,
2013-03-27 22:26:00,42.3,34.5,29.99,NNW,327,0.0,0.0,74,0.00,,,0.02,meteohub,2013-03-28 05:26:00,
2013-03-27 22:31:00,42.1,34.3,29.99,NNW,327,0.0,0.0,74,0.00,,,0.02,meteohub,2013-03-28 05:31:00,
2013-03-27 22:37:00,42.1,34.0,30.00,NNW,327,0.0,0.0,73,0.00,,,0.02,meteohub,2013-03-28 05:37:00,
2013-03-27 22:42:00,42.4,34.3,29.99,NNW,327,0.0,0.0,73,0.00,,,0.02,meteohub,2013-03-28 05:42:00,
2013-03-27 22:47:00,42.6,34.2,30.00,NNW,327,0.0,2.0,72,0.00,,,0.02,meteohub,2013-03-28 05:47:00,
2013-03-27 22:52:00,42.6,34.2,30.00,NNW,327,0.0,2.0,72,0.00,,,0.02,meteohub,2013-03-28 05:52:00,
2013-03-27 22:57:00,42.8,34.3,30.00,NNW,327,0.0,2.0,72,0.00,,,0.02,meteohub,2013-03-28 05:57:00,
2013-03-27 23:02:00,43.0,34.2,30.00,NNW,327,0.0,2.0,71,0.00,,,0.02,meteohub,2013-03-28 06:02:00,
2013-03-27 23:07:00,42.8,34.3,29.99,NNW,327,0.0,0.0,72,0.00,,,0.02,meteohub,2013-03-28 06:07:00,
2013-03-27 23:12:00,43.0,34.2,29.99,NNW,327,0.0,0.0,71,0.00,,,0.02,meteohub,2013-03-28 06:12:00,
2013-03-27 23:17:00,42.6,34.2,29.99,NNW,327,0.0,0.0,72,0.00,,,0.02,meteohub,2013-03-28 06:17:00,
2013-03-27 23:22:00,42.4,34.0,30.00,NNW,327,0.0,0.0,72,0.00,,,0.02,meteohub,2013-03-28 06:22:00,
2013-03-27 23:27:00,42.1,34.0,30.00,NNW,327,0.0,0.0,73,0.00,,,0.02,meteohub,2013-03-28 06:27:00,
2013-03-27 23:32:00,41.7,33.4,30.00,NNW,327,0.0,0.0,72,0.00,,,0.02,meteohub,2013-03-28 06:32:00,
2013-03-27 23:37:00,41.7,33.4,29.99,NNW,327,0.0,0.0,72,0.00,,,0.02,meteohub,2013-03-28 06:37:00,
2013-03-27 23:42:00,41.9,33.6,30.00,NNW,327,0.0,0.0,72,0.00,,,0.02,meteohub,2013-03-28 06:42:00,
2013-03-27 23:47:00,41.9,33.6,30.00,NNW,327,0.0,0.0,72,0.00,,,0.02,meteohub,2013-03-28 06:47:00,
2013-03-27 23:52:00,41.9,33.6,30.00,NNW,327,0.0,0.0,72,0.00,,,0.02,meteohub,2013-03-28 06:52:00,
2013-03-27 23:57:00,42.1,33.4,30.00,NNW,327,0.0,0.0,71,0.00,,,0.02,meteohub,2013-03-28 06:57:00,